Home   Weather   Kopervik   Past weeks

Flag for Norway Past Weather in Kopervik, Norway — Yesterday and Last 2 Weeks

Now
52 °F

Rain showers. Partly cloudy.


Feels Like: 45 °F
Forecast: 51 / 55 °F
Wind: 29 mph from West

Location: Karmoy

Current Time: Sep 29, 2016 at 10:38:13 PM

Latest Report: Sep 29, 2016 at 9:50 PM


Visibility: 6 mi

Pressure: 29.33 "Hg

Humidity: 77%

Dew Point: 45 °F

Location of KopervikLocation

Past Weather in Kopervik — Graph

°F

Kopervik Temperature Yesterday

Maximum temperature yesterday: 59 °F (at 12:20 AM)
Minimum temperature yesterday: 52 °F (at 9:50 PM)
Average temperature yesterday: 56 °F

High & Low Weather Summary for the Past Weeks

 TemperatureHumidityPressure
High77 °F (Sep 15, 12:50 PM)100% (Sep 19, 6:20 AM)30.24 "Hg (Sep 19, 6:20 AM)
Low50 °F (Sep 20, 3:20 AM)47% (Sep 15, 5:50 PM)29.06 "Hg (Sep 29, 3:50 PM)
Average60 °F79%29.98 "Hg
* Reported Sep 14 9:20 PM — Sep 29 9:20 PM, Kopervik, Weather by CustomWeather, © 2016

Note: Actual official high and low records may vary slightly from our data, if they occured in-between our weather recording intervals... More about our weather records

Advertising

Kopervik Weather History for the Previous 24 Hours

Scroll right to see more
 ConditionsComfort  
Time TempWeatherWind HumidityBarometerVisibility
9:20 PM
Thu, Sep 29
52 °FPartly cloudy.33 mph77%29.30 "HgN/A
8:50 PM54 °FPassing clouds.32 mph77%29.30 "HgN/A
8:20 PM52 °FPassing clouds.35 mph77%29.27 "HgN/A
7:50 PM54 °FPartly cloudy.32 mph77%29.27 "HgN/A
7:20 PM54 °FScattered showers. Partly cloudy.38 mph77%29.24 "HgN/A
6:50 PM54 °FSprinkles. Broken clouds.43 mph82%29.21 "Hg5 mi
6:20 PM54 °FScattered showers. Broken clouds.43 mph82%29.15 "Hg5 mi
5:50 PM54 °FLight rain. Fog.44 mph82%29.12 "Hg3 mi
5:20 PM55 °FDrizzle. Broken clouds.36 mph88%29.09 "Hg5 mi
4:50 PM55 °FSprinkles. Broken clouds.43 mph82%29.09 "Hg4 mi
4:20 PM54 °FSprinkles. Broken clouds.50 mph82%29.06 "Hg4 mi
3:50 PM55 °FRain showers. Broken clouds.48 mph77%29.06 "Hg4 mi
3:20 PM55 °FLight rain. Broken clouds.53 mph72%29.09 "Hg4 mi
2:50 PM55 °FHeavy rain. Broken clouds.47 mph82%29.09 "Hg2 mi
2:20 PM55 °FScattered showers. Partly sunny.46 mph82%29.09 "Hg4 mi
1:50 PM57 °FScattered showers. Broken clouds.45 mph67%29.09 "HgN/A
1:20 PM57 °FSprinkles. Scattered clouds.46 mph72%29.12 "Hg6 mi
12:50 PM57 °FScattered showers. Broken clouds.45 mph67%29.12 "HgN/A
12:20 PM57 °FSprinkles. Broken clouds.44 mph77%29.15 "Hg6 mi
11:50 AM57 °FScattered showers. Broken clouds.41 mph77%29.15 "Hg5 mi
11:20 AM57 °FScattered showers. Broken clouds.41 mph72%29.18 "Hg6 mi
10:50 AM57 °FScattered showers. Broken clouds.41 mph72%29.21 "Hg5 mi
10:20 AM57 °FScattered showers. Broken clouds.40 mph72%29.21 "HgN/A
9:50 AM57 °FScattered showers. Partly sunny.38 mph77%29.21 "HgN/A
9:20 AM57 °FScattered clouds.36 mph72%29.24 "HgN/A
8:50 AM59 °FBroken clouds.36 mph77%29.24 "HgN/A
8:20 AM59 °FPartly sunny.36 mph77%29.24 "Hg6 mi
7:50 AM59 °FBroken clouds.36 mph88%29.27 "Hg6 mi
7:20 AM59 °FPartly cloudy.31 mph88%29.27 "Hg5 mi
6:50 AM59 °FPartly cloudy.32 mph94%29.27 "Hg5 mi
6:20 AM61 °FPassing clouds.33 mph88%29.27 "Hg5 mi
5:50 AM61 °FPassing clouds.33 mph88%29.30 "Hg5 mi
5:20 AM61 °FLight rain. Low clouds.29 mph88%29.30 "Hg4 mi
4:50 AM61 °FLow clouds.31 mph94%29.33 "Hg4 mi
4:20 AM61 °FLow clouds.31 mph88%29.33 "Hg4 mi
3:50 AM61 °FLow clouds.30 mph94%29.36 "Hg4 mi
3:20 AM61 °FLow clouds.29 mph94%29.39 "Hg4 mi
2:50 AM61 °FLow clouds.31 mph94%29.39 "Hg4 mi
2:20 AM57 °FLight rain. Mostly cloudy.12 mph94%29.42 "Hg4 mi
1:50 AM54 °FRain. Mostly cloudy.25 mph94%29.45 "Hg1 mi
1:20 AM54 °FLight rain. Low clouds.14 mph94%29.47 "Hg4 mi
12:50 AM52 °FLight rain. Mostly cloudy.20 mph100%29.50 "Hg1 mi
12:20 AM52 °FLight rain. Partly cloudy.17 mph94%29.53 "Hg2 mi
11:50 PM
Wed, Sep 28
52 °FDrizzle. Overcast.13 mph100%29.56 "Hg5 mi
11:20 PM52 °FLight rain. Partly cloudy.13 mph100%29.62 "Hg4 mi
10:50 PM52 °FLight rain. Passing clouds.12 mph94%29.65 "Hg6 mi
10:20 PM52 °FRain. Passing clouds.10 mph94%29.68 "Hg4 mi
Weather by CustomWeather, © 2016

See weather overviewHow to use our weather pages